User: anonymous   Login
Location: Unspecified
(0.0000°N, 0.0000°E)
Time: 20:07:32
(UTC+01:00)
Language:

Cosmos 1538 Rocket - Orbit

View from above orbital plane
View from above orbital plane
View from above satellite
View from above satellite

Ground track
Ground track

The orbit data is extracted from the following two-line orbital elements,

1 14760U 84019B   18049.31211455 -.00000052 +00000-0 -89659-5 0  9995
2 14760 074.0420 030.3364 0028311 192.3017 167.7448 14.35837842778907
Epoch (UTC): 18 February 2018 07:29:26
Eccentricity: 0.0028311
inclination: 74.0420°
perigee height: 752 km
apogee height: 792 km
right ascension of ascending node: 30.3364°
argument of perigee: 192.3017°
revolutions per day: 14.35837842
mean anomaly at epoch: 167.7448°
orbit number at epoch: 77890

The dashed part of the orbit path shows where the satellite is in the earth's shadow,  

DLR